Time,TemperatureF,DewpointF,PressureIn,WindDirection,WindDirectionDegrees,WindSpeedMPH,WindSpeedGustMPH,Humidity,HourlyPrecipIn,Conditions,Clouds,dailyrainin,SoftwareType,DateUTC
2013-04-01 00:05:00,51.5,35.0,29.29,NNW,342,4.0,6.0,53,0.00,,,0.00,weatherlink.com 1.10,2013-04-01 05:05:00,
2013-04-01 00:20:00,50.3,33.0,29.30,NNW,330,4.0,11.0,52,0.00,,,0.00,weatherlink.com 1.10,2013-04-01 05:20:00,
2013-04-01 00:35:00,49.0,33.0,29.31,NW,319,6.0,12.0,54,0.00,,,0.00,weatherlink.com 1.10,2013-04-01 05:35:00,
2013-04-01 00:50:00,48.1,33.0,29.32,WNW,283,2.0,9.0,56,0.00,,,0.00,weatherlink.com 1.10,2013-04-01 05:50:00,
2013-04-01 01:05:00,47.1,32.0,29.33,NNW,343,4.0,13.0,57,0.00,,,0.00,weatherlink.com 1.10,2013-04-01 06:05:00,
2013-04-01 01:20:00,46.5,32.0,29.34,NW,318,3.0,11.0,58,0.00,,,0.00,weatherlink.com 1.10,2013-04-01 06:20:00,
2013-04-01 01:35:00,45.9,32.0,29.34,NNE,19,2.0,8.0,59,0.00,,,0.00,weatherlink.com 1.10,2013-04-01 06:35:00,
2013-04-01 01:50:00,45.2,32.0,29.35,NW,325,6.0,8.0,61,0.00,,,0.00,weatherlink.com 1.10,2013-04-01 06:50:00,
2013-04-01 02:05:00,44.9,29.0,29.35,WNW,287,5.0,15.0,55,0.00,,,0.00,weatherlink.com 1.10,2013-04-01 07:05:00,
2013-04-01 02:20:00,44.6,30.0,29.36,NNE,12,4.0,15.0,56,0.00,,,0.00,weatherlink.com 1.10,2013-04-01 07:20:00,
2013-04-01 02:35:00,44.1,30.0,29.37,WNW,290,4.0,11.0,57,0.00,,,0.00,weatherlink.com 1.10,2013-04-01 07:35:00,
2013-04-01 02:51:00,43.3,28.0,29.38,NW,315,6.0,12.0,56,0.00,,,0.00,weatherlink.com 1.10,2013-04-01 07:51:00,
2013-04-01 03:06:00,42.8,28.0,29.37,NW,308,6.0,12.0,57,0.00,,,0.00,weatherlink.com 1.10,2013-04-01 08:06:00,
2013-04-01 05:06:00,40.4,29.0,29.42,NW,323,2.0,6.0,65,0.00,,,0.00,weatherlink.com 1.10,2013-04-01 10:06:00,
2013-04-01 05:36:00,40.4,26.0,29.44,WNW,301,1.0,9.0,58,0.00,,,0.00,weatherlink.com 1.10,2013-04-01 10:36:00,
2013-04-01 05:51:00,40.2,27.0,29.44,NW,318,1.0,6.0,59,0.00,,,0.00,weatherlink.com 1.10,2013-04-01 10:51:00,
2013-04-01 06:36:00,38.6,26.0,29.47,West,277,1.0,13.0,60,0.00,,,0.00,weatherlink.com 1.10,2013-04-01 11:36:00,
2013-04-01 06:51:00,38.4,25.0,29.48,NNW,345,3.0,11.0,60,0.00,,,0.00,weatherlink.com 1.10,2013-04-01 11:51:00,
2013-04-01 07:06:00,38.1,25.0,29.48,NNW,332,3.0,10.0,60,0.00,,,0.00,weatherlink.com 1.10,2013-04-01 12:06:00,
2013-04-01 07:21:00,38.3,25.0,29.49,NNW,328,3.0,8.0,58,0.00,,,0.00,weatherlink.com 1.10,2013-04-01 12:21:00,
2013-04-01 07:37:00,38.4,23.0,29.51,WNW,297,3.0,10.0,55,0.00,,,0.00,weatherlink.com 1.10,2013-04-01 12:37:00,
2013-04-01 07:52:00,38.5,24.0,29.51,NW,308,1.0,10.0,57,0.00,,,0.00,weatherlink.com 1.10,2013-04-01 12:52:00,
2013-04-01 08:06:00,37.7,26.0,29.52,NW,319,2.0,8.0,63,0.00,,,0.00,weatherlink.com 1.10,2013-04-01 13:06:00,
2013-04-01 08:22:00,37.6,27.0,29.53,NNE,25,2.0,8.0,65,0.00,,,0.00,weatherlink.com 1.10,2013-04-01 13:22:00,
2013-04-01 08:37:00,38.2,25.0,29.53,WNW,283,6.0,12.0,59,0.00,,,0.00,weatherlink.com 1.10,2013-04-01 13:37:00,
2013-04-01 08:52:00,38.0,22.0,29.53,WNW,288,6.0,12.0,52,0.00,,,0.00,weatherlink.com 1.10,2013-04-01 13:52:00,
2013-04-01 09:07:00,38.3,23.0,29.53,WNW,303,8.0,13.0,54,0.00,,,0.00,weatherlink.com 1.10,2013-04-01 14:07:00,
2013-04-01 09:22:00,39.2,24.0,29.54,NW,316,5.0,13.0,54,0.00,,,0.00,weatherlink.com 1.10,2013-04-01 14:22:00,
2013-04-01 09:37:00,39.4,25.0,29.55,WNW,293,7.0,10.0,56,0.00,,,0.00,weatherlink.com 1.10,2013-04-01 14:37:00,
2013-04-01 09:52:00,39.9,25.0,29.55,NW,305,6.0,11.0,55,0.00,,,0.00,weatherlink.com 1.10,2013-04-01 14:52:00,
2013-04-01 10:07:00,40.6,24.0,29.55,NW,304,5.0,10.0,53,0.00,,,0.00,weatherlink.com 1.10,2013-04-01 15:07:00,
2013-04-01 10:22:00,41.1,24.0,29.55,NNW,337,5.0,10.0,52,0.00,,,0.00,weatherlink.com 1.10,2013-04-01 15:22:00,
2013-04-01 10:37:00,41.6,24.0,29.55,West,278,4.0,11.0,50,0.00,,,0.00,weatherlink.com 1.10,2013-04-01 15:37:00,
2013-04-01 10:52:00,43.2,25.0,29.56,WNW,285,6.0,9.0,49,0.00,,,0.00,weatherlink.com 1.10,2013-04-01 15:52:00,
2013-04-01 11:07:00,43.2,24.0,29.56,NW,314,3.0,12.0,47,0.00,,,0.00,weatherlink.com 1.10,2013-04-01 16:07:00,
2013-04-01 11:22:00,44.1,24.0,29.56,NW,323,7.0,10.0,46,0.00,,,0.00,weatherlink.com 1.10,2013-04-01 16:22:00,
2013-04-01 11:37:00,43.7,24.0,29.55,NW,307,6.0,12.0,46,0.00,,,0.00,weatherlink.com 1.10,2013-04-01 16:37:00,
2013-04-01 11:52:00,44.2,24.0,29.56,NW,314,6.0,13.0,45,0.00,,,0.00,weatherlink.com 1.10,2013-04-01 16:52:00,
2013-04-01 12:07:00,44.6,23.0,29.56,WNW,284,5.0,17.0,43,0.00,,,0.00,weatherlink.com 1.10,2013-04-01 17:07:00,
2013-04-01 12:22:00,45.0,21.0,29.56,West,280,5.0,11.0,38,0.00,,,0.00,weatherlink.com 1.10,2013-04-01 17:22:00,
2013-04-01 12:37:00,45.0,20.0,29.56,NW,326,3.0,12.0,37,0.00,,,0.00,weatherlink.com 1.10,2013-04-01 17:37:00,
2013-04-01 12:52:00,44.7,22.0,29.55,SW,229,7.0,10.0,40,0.00,,,0.00,weatherlink.com 1.10,2013-04-01 17:52:00,
2013-04-01 13:07:00,45.8,21.0,29.56,NW,309,3.0,13.0,37,0.00,,,0.00,weatherlink.com 1.10,2013-04-01 18:07:00,
2013-04-01 13:22:00,46.9,20.0,29.56,NNW,336,4.0,12.0,35,0.00,,,0.00,weatherlink.com 1.10,2013-04-01 18:22:00,
2013-04-01 13:37:00,47.5,17.0,29.55,WNW,299,4.0,12.0,29,0.00,,,0.00,weatherlink.com 1.10,2013-04-01 18:37:00,
2013-04-01 13:52:00,46.5,16.0,29.55,NNW,332,11.0,12.0,29,0.00,,,0.00,weatherlink.com 1.10,2013-04-01 18:52:00,
2013-04-01 14:07:00,47.2,19.0,29.55,NW,308,9.0,14.0,33,0.00,,,0.00,weatherlink.com 1.10,2013-04-01 19:07:00,
2013-04-01 14:22:00,47.3,19.0,29.55,WSW,245,8.0,19.0,33,0.00,,,0.00,weatherlink.com 1.10,2013-04-01 19:22:00,
2013-04-01 14:37:00,48.0,20.0,29.55,West,278,11.0,15.0,33,0.00,,,0.00,weatherlink.com 1.10,2013-04-01 19:37:00,
2013-04-01 14:52:00,48.2,19.0,29.55,NW,307,4.0,13.0,31,0.00,,,0.00,weatherlink.com 1.10,2013-04-01 19:52:00,
2013-04-01 15:07:00,48.9,20.0,29.55,NW,316,10.0,12.0,32,0.00,,,0.00,weatherlink.com 1.10,2013-04-01 20:07:00,
2013-04-01 15:22:00,48.5,20.0,29.55,West,280,4.0,12.0,32,0.00,,,0.00,weatherlink.com 1.10,2013-04-01 20:22:00,
2013-04-01 15:37:00,48.6,21.0,29.55,WNW,289,7.0,12.0,33,0.00,,,0.00,weatherlink.com 1.10,2013-04-01 20:37:00,
2013-04-01 15:52:00,49.6,20.0,29.55,North,352,6.0,12.0,31,0.00,,,0.00,weatherlink.com 1.10,2013-04-01 20:52:00,
2013-04-01 16:07:00,49.1,19.0,29.55,NE,51,5.0,11.0,31,0.00,,,0.00,weatherlink.com 1.10,2013-04-01 21:07:00,
2013-04-01 16:22:00,49.2,20.0,29.55,WNW,294,6.0,15.0,31,0.00,,,0.00,weatherlink.com 1.10,2013-04-01 21:22:00,
2013-04-01 16:37:00,48.9,20.0,29.55,NW,323,7.0,11.0,32,0.00,,,0.00,weatherlink.com 1.10,2013-04-01 21:37:00,
2013-04-01 16:52:00,48.1,21.0,29.55,NW,322,12.0,13.0,34,0.00,,,0.00,weatherlink.com 1.10,2013-04-01 21:52:00,
2013-04-01 17:07:00,48.8,20.0,29.55,WNW,283,2.0,8.0,32,0.00,,,0.00,weatherlink.com 1.10,2013-04-01 22:07:00,
2013-04-01 17:22:00,48.7,21.0,29.55,North,4,3.0,11.0,33,0.00,,,0.00,weatherlink.com 1.10,2013-04-01 22:22:00,
2013-04-01 17:37:00,48.5,20.0,29.55,NW,306,7.0,12.0,33,0.00,,,0.00,weatherlink.com 1.10,2013-04-01 22:37:00,
2013-04-01 17:52:00,47.5,21.0,29.55,NW,326,7.0,11.0,35,0.00,,,0.00,weatherlink.com 1.10,2013-04-01 22:52:00,
2013-04-01 18:07:00,47.3,21.0,29.55,WNW,294,8.0,11.0,35,0.00,,,0.00,weatherlink.com 1.10,2013-04-01 23:07:00,
2013-04-01 18:22:00,47.1,21.0,29.55,NNW,341,2.0,8.0,35,0.00,,,0.00,weatherlink.com 1.10,2013-04-01 23:22:00,
2013-04-01 18:37:00,47.1,21.0,29.55,NNW,339,2.0,9.0,35,0.00,,,0.00,weatherlink.com 1.10,2013-04-01 23:37:00,
2013-04-01 18:52:00,46.3,20.0,29.55,North,357,3.0,9.0,35,0.00,,,0.00,weatherlink.com 1.10,2013-04-01 23:52:00,
2013-04-01 19:07:00,45.5,20.0,29.55,NW,326,1.0,5.0,36,0.00,,,0.00,weatherlink.com 1.10,2013-04-02 00:07:00,
2013-04-01 19:22:00,44.7,20.0,29.55,NNW,336,0.0,7.0,38,0.00,,,0.00,weatherlink.com 1.10,2013-04-02 00:22:00,
2013-04-01 19:37:00,43.8,20.0,29.55,WNW,296,2.0,6.0,39,0.00,,,0.00,weatherlink.com 1.10,2013-04-02 00:37:00,
2013-04-01 19:52:00,43.3,21.0,29.55,NW,312,1.0,5.0,41,0.00,,,0.00,weatherlink.com 1.10,2013-04-02 00:52:00,
2013-04-01 20:22:00,42.0,21.0,29.56,NNW,340,0.0,3.0,43,0.00,,,0.00,weatherlink.com 1.10,2013-04-02 01:22:00,
2013-04-01 20:37:00,41.8,22.0,29.56,NNW,332,0.0,3.0,45,0.00,,,0.00,weatherlink.com 1.10,2013-04-02 01:37:00,
2013-04-01 20:52:00,41.1,21.0,29.57,WNW,297,1.0,3.0,45,0.00,,,0.00,weatherlink.com 1.10,2013-04-02 01:52:00,
2013-04-01 21:07:00,40.7,21.0,29.57,NNW,333,1.0,3.0,46,0.00,,,0.00,weatherlink.com 1.10,2013-04-02 02:07:00,
2013-04-01 21:22:00,40.4,21.0,29.57,NW,321,0.0,3.0,46,0.00,,,0.00,weatherlink.com 1.10,2013-04-02 02:22:00,
2013-04-01 21:37:00,39.6,21.0,29.57,North,6,0.0,1.0,47,0.00,,,0.00,weatherlink.com 1.10,2013-04-02 02:37:00,
2013-04-01 21:52:00,39.4,21.0,29.57,NW,322,1.0,2.0,47,0.00,,,0.00,weatherlink.com 1.10,2013-04-02 02:52:00,
2013-04-01 22:07:00,39.2,20.0,29.58,NW,323,2.0,3.0,47,0.00,,,0.00,weatherlink.com 1.10,2013-04-02 03:07:00,
2013-04-01 22:22:00,39.2,20.0,29.58,WNW,302,1.0,5.0,47,0.00,,,0.00,weatherlink.com 1.10,2013-04-02 03:22:00,
2013-04-01 22:38:00,38.8,20.0,29.58,NW,318,3.0,3.0,48,0.00,,,0.00,weatherlink.com 1.10,2013-04-02 03:38:00,
2013-04-01 22:53:00,38.5,21.0,29.59,NNW,337,1.0,2.0,49,0.00,,,0.00,weatherlink.com 1.10,2013-04-02 03:53:00,
2013-04-01 23:08:00,37.9,21.0,29.60,North,354,0.0,1.0,51,0.00,,,0.00,weatherlink.com 1.10,2013-04-02 04:08:00,
2013-04-01 23:23:00,37.5,21.0,29.60,NW,323,2.0,3.0,51,0.00,,,0.00,weatherlink.com 1.10,2013-04-02 04:23:00,
2013-04-01 23:38:00,37.4,20.0,29.60,North,1,0.0,2.0,50,0.00,,,0.00,weatherlink.com 1.10,2013-04-02 04:38:00,
2013-04-01 23:53:00,36.7,20.0,29.61,NNE,13,1.0,2.0,51,0.00,,,0.00,weatherlink.com 1.10,2013-04-02 04:53:00,